Location: Brabourne
(51.1333°N, 1.0000°E)
Time: 12:31:05
(UTC+00:00)

Cosmos 1825 Rocket - Pass Details

Date: 21 October 2021
Orbit: 603 x 631 km, 82.5° (Epoch: 26 November)

Event Time Altitude Azimuth Distance (km) Brightness Sun altitude
Rises 20:31:35 0° 338° (NNW) 2,880 7.6 -34.5°
Reaches altitude 10° 20:34:15 10° 322° (NW) 1,967 6.8 -34.9°
Enters shadow 20:36:29 19° 293° (WNW) 1,464 6.1 -35.2°
